ギブス彗星

313P/Gibbs (2025)

English version
Home page
Updated on August 10, 2025

---------------------------------------------------------------------

・ プロフィール

・ 軌道要素

Epoch 2025 May 5.0 TT = JDT 2460800.5
T 2025 Dec. 2.72191 TT                                  Pike
q   2.4216186            (2000.0)            P               Q
n   0.17517610     Peri.  254.98228     +0.98286907     -0.02040087
a   3.1633905      Node   105.92524     +0.08326182     +0.93580595
e   0.2344863      Incl.   10.98099     -0.16442585     +0.35192475
P   5.63
From 181 observations 2003 Sept. 22-2025 July 25, mean residual 0".6.

・ 光度変化

        m1 = 14.5 + 5 logΔ + 10.0 log r

---------------------------------------------------------------------

軌道要素はM.P.E.C. 2025-P113に掲載されたものです。
光度グラフはComet for Windowsで作成したものです。

---------------------------------------------------------------------

Copyright(C) Seiichi Yoshida (comet@aerith.net). All rights reserved.